Regional Weather Roundup
Issued by NWS Newport/Morehead, NC

Current Version | Previous Version | Text Only | Print | Product List | Glossary On
Versions: 1 2 3 4 5 6 7 8 9 10 11 12 13 14 15 16 17 18 19 20 21 22 23 24 25 26 27 28 29 30 31 32 33 34 35 36 37 38 39 40 41 42 43 44 45 46 47 48 49 50
000
ASUS42 KMHX 061425
RWRMHX
WEATHER ROUNDUP FOR EASTERN NORTH CAROLINA
NATIONAL WEATHER SERVICE NEWPORT/MOREHEAD CITY NC
1000 AM EDT MON JUL 06 2015

NOTE: "FAIR" INDICATES FEW OR NO CLOUDS BELOW 12,000 FEET
WITH NO SIGNIFICANT WEATHER AND/OR OBSTRUCTIONS TO VISIBILITY

NCZ015>017-031-032-045>047-102-103-061500-
NORTH COAST

CITY           SKY/WX    TMP DP  RH WIND       PRES   REMARKS
EDENTON          N/A     81  74  77 SW5       30.14F
ELIZABETH CITY MOSUNNY   83  74  74 S10       30.15S
KITTY HAWK     MOSUNNY   87  76  69 S3        30.15R
MANTEO         MOSUNNY   84  73  69 SW7       30.16S

$$

NCZ045>047-081-094-103-104-061500-
CENTRAL COAST

CITY           SKY/WX    TMP DP  RH WIND       PRES   REMARKS
FRISCO         MOSUNNY   80  74  81 S8        30.18R
SWANQUARTER      N/A     86 N/A N/A S10       30.12S

$$

NCZ095-097-098-100-101-061500-
SOUTHERN COAST

CITY           SKY/WX    TMP DP  RH WIND       PRES   REMARKS
BEAUFORT       MOSUNNY   83  76  79 SW10      30.17R
CEDAR ISLAND     N/A     84 N/A N/A S9        30.21S
JACKSONVILLE   PTSUNNY   83  73  72 VRB5      30.15R
PINEY ISLAND   MOSUNNY  N/A N/A N/A S13       30.17R
WILMINGTON       N/A     82  73  74 VRB7      30.16R


$$

NCZ011>013-027>030-043-044-078>080-089-090>093-098-061500-
COASTAL PLAIN

CITY           SKY/WX    TMP DP  RH WIND       PRES   REMARKS
AHOSKIE        MOSUNNY  N/A N/A N/A S9        30.14S
CLINTON        SUNNY     82  72  71 SW7       30.15S
ELIZABETHTOWN  SUNNY     81  69  65 S7        30.15S
GOLDSBORO      PTSUNNY   83  72  69 SW8       30.13R
GREENVILLE     PTSUNNY   82  73  74 S6        30.15S
HAVELOCK       MOSUNNY   83  72  69 S8        30.17R
KENANSVILLE    MOSUNNY   82  69  66 SW3       30.16R
KINSTON        MOSUNNY   84  72  65 SW9       30.16R
NEW BERN       MOSUNNY   84  71  65 SW9       30.17R
RICHLANDS      PTSUNNY   84  70  61 S10       30.16S
ROCKY MOUNT    PTSUNNY   81  73  76 S9        30.14R
WASHINGTON     SUNNY     83  73  69 S10       30.15S
WHITEVILLE     SUNNY     81  69  68 SW7       30.15S

$$

AMZ130-135-150-152-154-156-158-170-250-252-270-ANZ085-086-088-633-658-670-061500-
MARINE OBSERVATIONS

STATION/POSITION TIME  TEMP    WIND        PRES    WAVE   SWELL
                       AIR SEA DIR/SP/G            HT/PER HT/PER
                 (UTC) (F)     (DEG/KT/KT) (MB)    (FT/S) (FT/S)
CHESAPEAKE LIGHT 1400   77     190/ 10/ 11 1021.0
64 E VA BEACH    1350   78 78  220/  6/  8 1020.9    3/ 9   2/ 9
DUCK             1400   81 78  220/  8/ 12   N/A
2 E DUCK         1311      77                N/A     2/ 9
OREGON INLET     1400   81 81  190/ 11/ 12 1021.4
13E OREGON INLT  1400      78                N/A     3/ 5   2/13
HATTERAS CG      1400   81 79  170/  6/ 10 1021.5
DIAMOND BUOY     1350   81 82  190/ 12/ 14 1021.9    3/ 8   2/ 8
CAPE LOOKOUT     1400   79     170/  7/  9 1021.5
BEAUFORT LAB     1400   81 81  200/  8/ 10 1021.1
30 SE NEW RVR IN NOT AVBL
27 SE WRIGHTSVLE 1400      80  210/ 10/ 10   N/A
5 SE WRIGHTSVLE  1308   80 78  210/ 10/ 14 1020.9
225 S CAPE HAT   1350   81 80  230/  2/  4 1023.3    4/ 8   3/ 8
41 SE CHARLESTON 1350   80 82  230/ 12/ 14 1021.0    3/ 9   2/ 9

$$


USA.gov is the U.S. government's official web portal to all federal, state and local government web resources and services.